Delta Virtual Airport Information Service

London Gatwick Airport

ICAO: EGKK Country: United Kingdom
Latitude: 51.148 Longitude: -0.19027
Latest Arrival : BAW7065651 (EGGP-EGKK) Latest Departure : BAW2550 (2) (EGKK-LEMG)


WX CaptureLIVE
Data provided by noaa.gov | Fetched at 16:43:58

METAR : EGKK 062120Z 18001KT CAVOK 21/13 Q1018

TAF : EGKK 061656Z 0618/0724 19005KT CAVOK PROB30 0702/0707 6000


Runway Data for EGKK
Data provided by openaviationdata.com

Runway ID Mag Var Hdg Length Elevation Surface ILS Freq ILS Id ILS Slope
08L -1 78° 8394 ft 196 ft Asphalt -- -- --
08R -1 78° 10352 ft 196 ft Asphalt 110.9 IGG 3
26L -1 258° 10352 ft 196 ft Asphalt 110.9 IWW 3
26R -1 258° 8394 ft 196 ft Asphalt -- -- --

London Gatwick Airport, United Kingdom
Use only for reference purposes



Not for navigational purposes.